Weather WX

World > North America > United States > New Jersey

Pluckemin, New Jersey Regional Weather

Lat: 40.65N, Lon: 74.64W
Wx Zone: NJZ010
Warning FLW WEATHER ALERT - (More Info. Click Here) Warning
Feedback

Pluckemin, NJ Regional Weather

Expires:201907170300;;758671
ASUS41 KOKX 170214
RWROKX

Regional Weather Roundup
National Weather Service New York NY
1000 PM EDT TUE JUL 16 2019

Note: "FAIR" indicates few or no clouds below 12,000 feet with no
significant weather and/or obstructions to visibility.


NJZ001-105-106-008-010-013-015-019>022-104-170300-
New Jersey
  
CITY           SKY/WX    TMP DP  RH WIND       PRES   REMARKS
Newark/Liberty MOCLDY    86  69  56 S10       30.01R HX  90           
Teterboro      FAIR      88  66  48 SW8       29.99R HX  90           
Caldwell       FAIR      85  69  58 SW3       30.01R                  
Somerville     FAIR      78  71  79 CALM      30.01R                  
Linden         FAIR      85  67  54 CALM      30.01S                  
Perth Amboy      N/A     82 N/A N/A S10         N/A                   
Sussex         FAIR      76  68  76 CALM      30.04R                  
Andover          N/A     75  70  84 CALM      30.05R                  
Trenton        MOCLDY    83  68  60 W7        30.03R                  
Millville      FAIR      78  75  90 SE3       30.04R                  
Atlantic City  FAIR      80  72  76 S8        30.05R                  
Wrightstown    FAIR      78  70  75 SW9       30.03                   
Toms River     FAIR      78  77  96 S7        30.05R                  
Belmar         FAIR      79  69  71 S8        30.05R                  
$$
 

SKY/WX - Weather  TMP - Temperature  DP - Dew Point  RH - Relative Humidity
WIND - Wind Direction/Speed PRES - Barometric Pressure VSB - Visibility
WCI - Wind Chill Index E13G22 Wind - East Wind 13 mph/Gusts of 22 mph